Change the Weather History Date:

Saturday, January 4, 2014

  Actual Average Record
Temperature  
Mean Temperature 31 °F 34 °F  
Max Temperature 44 °F 42 °F 69 °F (2007)
Min Temperature 17 °F 26 °F -1 °F (1981)
Degree Days  
Heating Degree Days 34 31  
Month to date heating degree days 145 124  
Since 1 July heating degree days 1842 1889  
Cooling Degree Days 0 0  
Month to date cooling degree days 0 0  
Year to date cooling degree days 0 0  
Moisture  
Dew Point 4 °F    
Average Humidity 37    
Maximum Humidity 54    
Minimum Humidity 20    
Precipitation  
Precipitation 0.00 in 0.10 in 0.59 in (1972)
Month to date precipitation 0.23 0.37  
Year to date precipitation 0.23 0.37  
Snow  
Snow 0.00 in - - ()
Month to date snowfall 2.7  
Since 1 July snowfall 7.0  
Snow Depth 1.00 in    
Sea Level Pressure  
Sea Level Pressure 30.26 in    
Wind  
Wind Speed 6 mph (SSE)    
Max Wind Speed 20 mph    
Max Gust Speed 30 mph    
Visibility 10 miles    
Events      
T = Trace of Precipitation, MM = Missing Value Source: NWS Daily Summary

Daily Weather History Graph

Daily Weather History Graph

Search for Another Location

Airport or City:

Trip Planner

Search our weather history database for the weather conditions in past years. The results will help you decide how hot, cold, wet, or windy it might be!

Date:

Astronomy

Jan. 04, 2014 Rise Set
Actual Time 7:39 AM EST 5:20 PM EST
Civil Twilight 7:10 AM EST 5:49 PM EST
Nautical Twilight 6:37 AM EST 6:22 PM EST
Astronomical Twilight 6:06 AM EST 6:53 PM EST
Moon 9:49 AM EST (1/4) 9:32 PM EST (1/4)
Length of Visible Light 10h 39m
Length of Day
9h 41m
Waxing Crescent, 15% of the Moon is Illuminated
Jan 4
Waxing Crescent
Jan 7
First Quarter
Jan 15
Full
Jan 24
Last Quarter
Jan 30
New

Hourly Weather History & Observations

Time (EST) Temp. Windchill Dew Point Humidity Pressure Visibility Wind Dir Wind Speed Gust Speed Precip Events Conditions
12:52 AM 21.9 °F 13.4 °F -9.9 °F 24% 30.31 in 10.0 mi Variable 6.9 mph - N/A   Clear
1:52 AM 24.1 °F 12.0 °F -11.9 °F 20% 30.29 in 10.0 mi South 13.8 mph 24.2 mph N/A   Clear
2:52 AM 24.1 °F 13.1 °F -11.0 °F 21% 30.30 in 10.0 mi South 11.5 mph 24.2 mph N/A   Clear
3:52 AM 24.1 °F 14.4 °F -9.0 °F 23% 30.30 in 10.0 mi SSE 9.2 mph 19.6 mph N/A   Clear
4:52 AM 23.0 °F 15.8 °F -6.0 °F 28% 30.32 in 10.0 mi Variable 5.8 mph - N/A   Clear
5:52 AM 23.0 °F 14.7 °F -5.1 °F 29% 30.33 in 10.0 mi SE 6.9 mph - N/A   Clear
6:52 AM 23.0 °F 15.8 °F -5.1 °F 29% 30.34 in 10.0 mi SSE 5.8 mph - N/A   Clear
7:52 AM 24.1 °F 18.2 °F -5.1 °F 28% 30.35 in 10.0 mi ESE 4.6 mph - N/A   Clear
8:52 AM 26.1 °F 20.5 °F -2.0 °F 30% 30.35 in 10.0 mi East 4.6 mph - N/A   Clear
9:52 AM 28.9 °F 23.9 °F 1.0 °F 30% 30.35 in 10.0 mi ESE 4.6 mph - N/A   Clear
10:52 AM 33.1 °F 30.0 °F -0.0 °F 24% 30.34 in 10.0 mi Variable 3.5 mph - N/A   Clear
11:52 AM 37.0 °F - 3.0 °F 24% 30.30 in 10.0 mi Calm Calm - N/A   Clear
12:52 PM 39.9 °F 37.8 °F 3.0 °F 21% 30.25 in 10.0 mi Variable 3.5 mph - N/A   Clear
1:52 PM 39.9 °F 35.8 °F 6.1 °F 25% 30.22 in 10.0 mi SE 5.8 mph - N/A   Clear
2:52 PM 42.1 °F 37.7 °F 7.0 °F 24% 30.20 in 10.0 mi SE 6.9 mph - N/A   Clear
3:52 PM 44.1 °F 40.8 °F 6.1 °F 21% 30.19 in 10.0 mi SSE 5.8 mph - N/A   Clear
4:52 PM 41.0 °F 34.7 °F 7.0 °F 25% 30.19 in 10.0 mi SSE 10.4 mph 16.1 mph N/A   Clear
5:52 PM 37.0 °F 34.5 °F 7.0 °F 29% 30.20 in 10.0 mi Variable 3.5 mph - N/A   Clear
6:52 PM 35.1 °F 29.3 °F 6.1 °F 30% 30.20 in 10.0 mi SSE 6.9 mph - N/A   Clear
7:52 PM 36.0 °F 32.1 °F 10.9 °F 36% 30.20 in 10.0 mi Variable 4.6 mph - N/A   Clear
8:52 PM 37.0 °F 31.0 °F 19.0 °F 48% 30.19 in 10.0 mi South 8.1 mph 18.4 mph N/A   Clear
9:52 PM 39.0 °F 33.4 °F 23.0 °F 53% 30.18 in 10.0 mi South 8.1 mph - N/A   Clear
10:52 PM 39.9 °F 36.7 °F 24.1 °F 53% 30.16 in 10.0 mi Variable 4.6 mph - N/A   Clear
11:52 PM 39.9 °F 36.7 °F 26.1 °F 58% 30.14 in 10.0 mi South 4.6 mph - N/A   Clear